DW7875 Weather Reports


Display with metric or nautical units.
time (UTC)temp
F
wind
direction
speed
MPH
gust
MPH
rain 1hr
in
rain 24hr
in
rain mn
in
humidity
%
barometer
mb
20260509081600 58 148 1.0 4.0 0.00 0.00 0.00 55 1011.5
20260509080059 58 211 0.0 6.0 0.00 0.00 0.00 55 1011.7
20260509074604 58 209 1.0 4.0 0.00 0.00 0.00 54 1011.6
20260509073055 58 210 2.0 7.0 0.00 0.00 0.00 54 1011.7
20260509071600 58 204 2.0 8.0 0.00 0.00 0.00 54 1011.9
20260509064552 57 201 1.0 5.0 0.00 0.00 0.00 55 1011.9
20260509063047 56 143 0.0 6.0 0.00 0.00 0.00 57 1012.0
20260509061548 56 200 0.0 3.0 0.00 0.00 0.00 58 1012.1
20260509060045 56 199 0.0 3.0 0.00 0.00 0.00 57 1012.2
20260509054604 56 168 0.0 2.0 0.00 0.00 0.00 56 1012.3
20260509053136 56 167 1.0 3.0 0.00 0.00 0.00 57 1012.4
20260509051547 56 219 0.0 5.0 0.00 0.00 0.00 57 1012.4
20260509050046 56 193 0.0 2.0 0.00 0.00 0.00 57 1012.4
20260509044538 57 193 0.0 2.0 0.00 0.00 0.00 54 1012.3
20260509043037 57 154 1.0 4.0 0.00 0.00 0.00 53 1012.3
20260509041534 57 200 1.0 5.0 0.00 0.00 0.00 53 1012.4
20260509040034 58 217 1.0 5.0 0.00 0.00 0.00 51 1012.5
20260509034531 58 215 1.0 5.0 0.00 0.00 0.00 51 1012.7
20260509033030 58 221 1.0 8.0 0.00 0.00 0.00 50 1012.6
20260509031530 58 224 2.0 9.0 0.00 0.00 0.00 50 1012.7
20260509030035 59 212 2.0 6.0 0.00 0.00 0.00 49 1012.9
20260509024532 58 195 1.0 5.0 0.00 0.00 0.00 50 1012.7
20260509023040 58 160 1.0 4.0 0.00 0.00 0.00 50 1012.7
20260509021528 58 221 1.0 6.0 0.00 0.00 0.00 51 1012.5
20260509020028 58 218 0.0 3.0 0.00 0.00 0.00 53 1012.5
20260509014533 57 172 0.0 1.0 0.00 0.00 0.00 58 1012.5
20260509013028 57 172 0.0 2.0 0.00 0.00 0.00 57 1012.5
20260509011526 58 172 0.0 0.0 0.00 0.00 0.00 59 1012.5
20260509010026 59 172 0.0 1.0 0.00 0.00 0.00 63 1012.2
20260509004527 59 172 0.0 0.0 0.00 0.00 0.00 66 1012.1
20260509003041 60 172 0.0 0.0 0.00 0.00 0.00 67 1012.0
20260509001522 60 172 0.0 2.0 0.00 0.00 0.00 65 1011.9
20260509000022 60 160 0.0 2.0 0.00 0.00 0.00 64 1011.8
20260508234526 61 160 0.0 4.0 0.00 0.00 0.00 63 1011.8
20260508233020 61 130 1.0 3.0 0.00 0.00 0.00 62 1011.7
20260508231519 61 141 2.0 4.0 0.00 0.00 0.00 59 1011.5
20260508230018 61 143 2.0 4.0 0.00 0.00 0.00 59 1011.5
20260508224518 62 139 3.0 6.0 0.00 0.00 0.00 57 1011.5
20260508223019 63 134 3.0 8.0 0.00 0.00 0.00 55 1011.5
20260508221521 63 132 3.0 6.0 0.00 0.00 0.00 54 1011.4
20260508220017 66 138 3.0 5.0 0.00 0.00 0.00 49 1011.5
20260508214614 70 146 2.0 5.0 0.00 0.00 0.00 41 1011.4
20260508213013 70 233 1.0 10.0 0.00 0.00 0.00 27 1011.2
20260508211513 70 130 1.0 8.0 0.00 0.00 0.00 28 1011.1
20260508210016 71 222 2.0 6.0 0.00 0.00 0.00 26 1011.3
20260508204511 72 247 1.0 7.0 0.00 0.00 0.00 29 1011.5
20260508203010 71 214 1.0 7.0 0.00 0.00 0.00 28 1011.6
20260508201509 72 231 2.0 6.0 0.00 0.00 0.00 27 1011.8
20260508200008 73 269 2.0 7.0 0.00 0.00 0.00 29 1012.0
20260508194507 72 160 1.0 6.0 0.00 0.00 0.00 28 1012.1
20260508193007 73 243 2.0 6.0 0.00 0.00 0.00 29 1012.2
20260508191505 73 252 1.0 5.0 0.00 0.00 0.00 26 1012.5
20260508190004 74 240 1.0 12.0 0.00 0.00 0.00 27 1012.7
20260508184503 74 263 2.0 6.0 0.00 0.00 0.00 24 1012.9
20260508183108 73 208 1.0 4.0 0.00 0.00 0.00 32 1013.1
20260508181659 73 240 2.0 4.0 0.00 0.00 0.00 35 1013.1
20260508180059 72 216 2.0 8.0 0.00 0.00 0.00 27 1013.3
20260508174605 72 37 2.0 6.0 0.00 0.00 0.00 27 1013.4
20260508173052 72 131 2.0 8.0 0.00 0.00 0.00 30 1013.5
20260508171556 71 356 3.0 6.0 0.00 0.00 0.00 31 1013.7
20260508170047 70 146 2.0 7.0 0.00 0.00 0.00 30 1014.1
20260508164547 69 348 3.0 9.0 0.00 0.00 0.00 33 1014.2
20260508163107 68 199 3.0 7.0 0.00 0.00 0.00 40 1014.2
20260508161539 68 245 3.0 7.0 0.00 0.00 0.00 36 1014.4
20260508160037 67 137 1.0 3.0 0.00 0.00 0.00 41 1014.7
20260508154537 65 227 1.0 3.0 0.00 0.00 0.00 42 1014.6
20260508153035 66 141 1.0 4.0 0.00 0.00 0.00 39 1015.0
20260508151540 67 148 1.0 4.0 0.00 0.00 0.00 39 1015.2
20260508150033 67 127 1.0 4.0 0.00 0.00 0.00 39 1015.4
20260508144536 67 87 0.0 3.0 0.00 0.00 0.00 36 1015.4
20260508143028 66 185 0.0 2.0 0.00 0.00 0.00 38 1015.5
20260508141525 65 198 1.0 3.0 0.00 0.00 0.00 40 1015.6
20260508140024 63 285 0.0 2.0 0.00 0.00 0.00 45 1015.7
20260508134522 60 323 0.0 1.0 0.00 0.00 0.00 53 1015.7
20260508133011 57 329 0.0 0.0 0.00 0.00 0.00 49 1015.6
20260508131508 56 329 0.0 0.0 0.00 0.00 0.00 55 1015.8
20260508130003 54 329 0.0 3.0 0.00 0.00 0.00 52 1015.9
20260508124559 53 231 0.0 0.0 0.00 0.00 0.00 57 1015.7
20260508123056 50 231 0.0 4.0 0.00 0.00 0.00 58 1015.7
20260508121553 48 359 0.0 2.0 0.00 0.00 0.00 62 1015.6
20260508120050 46 30 0.0 0.0 0.00 0.00 0.00 70 1015.5
20260508114549 45 30 0.0 0.0 0.00 0.00 0.00 71 1015.3
20260508113053 44 30 0.0 0.0 0.00 0.00 0.00 71 1015.2
20260508111547 44 30 0.0 0.0 0.00 0.00 0.00 71 1015.2
20260508110059 43 30 0.0 0.0 0.00 0.00 0.00 69 1015.0
20260508104546 43 30 0.0 0.0 0.00 0.00 0.00 68 1014.7
20260508103041 44 30 0.0 0.0 0.00 0.00 0.00 67 1014.5
20260508101548 44 30 0.0 0.0 0.00 0.00 0.00 66 1014.3
20260508100038 45 30 0.0 0.0 0.00 0.00 0.00 65 1014.2
20260508094544 45 30 0.0 1.0 0.00 0.01 0.00 64 1014.1
20260508093049 46 29 0.0 0.0 0.00 0.01 0.00 64 1014.0
20260508091532 46 29 0.0 0.0 0.00 0.01 0.00 63 1013.9
20260508090034 47 30 0.0 0.0 0.00 0.01 0.00 64 1013.7
20260508084524 48 30 0.0 0.0 0.00 0.02 0.00 63 1013.6